Location: Newark
(44.3248°N, 23.7839°E)
Time: 17:29:57
(UTC+00:00)

NOAA 19 - Pass Details

Date: 30 April 2024
Orbit: 839 x 859 km, 99.0° (Epoch: 29 May)

Event Time Altitude Azimuth Distance (km) Brightness Sun altitude
Exits shadow 19:02:08 15° 168° (SSE) 2,126 6.8 -15.2°
Maximum altitude 19:06:44 81° 255° (WSW) 856 5.2 -15.8°
Drops below altitude 10° 19:12:13 10° 344° (NNW) 2,465 8.5 -16.6°
Sets 19:14:35 0° 345° (NNW) 3,404 9.3 -16.9°
